Regional Weather Roundup
Issued by NWS

Home | Current Version | Previous Version | Graphics & Text | Print | Product List | Glossary On
Versions: 1 2 3 4 5 6 7 8 9 10 11 12 13 14 15 16 17 18 19 20 21 22 23 24 25 26 27 28 29 30 31 32 33 34 35 36 37 38 39 40 41 42 43 44 45 46 47 48 49 50
000
ASUS45 KSLC 280210
RWRUT

UTAH REGIONAL WEATHER ROUNDUP
NATIONAL WEATHER SERVICE SALT LAKE CITY UT
700 PM MST THU NOV 27 2014

UTZ001>011-023>025-280300-

NORTHERN UTAH

CITY           SKY/WX    TMP DP  RH WIND       PRES   REMARKS
BRIGHAM CITY   CLOUDY    42  32  68 CALM      30.16F
HILL AFB       CLOUDY    51  25  37 SE10      30.16F
LOGAN          CLEAR     41  33  73 SE3       30.15F
OGDEN          CLOUDY    50  27  40 S12       30.15F
PROVO AIRPORT  CLOUDY    37  32  81 CALM      30.21F
SALT LAKE CITY CLOUDY    50  25  37 SE9       30.15F
VERNAL         MOCLDY    37  25  61 W6        30.24F WCI  32
WENDOVER       MOCLDY    43  30  61 CALM      30.15F
HEBER CITY     CLOUDY    36  30  80 CALM      30.23F
WEST JORDAN    CLEAR     55  28  35 S10       30.17F

$$

UTZ012>022-026-027-280300-

SOUTHERN/CENTRAL UTAH

CITY           SKY/WX    TMP DP  RH WIND       PRES   REMARKS
BLANDING       CLOUDY    40  24  52 N7        30.41S WCI  35
BRYCE CANYON   CLOUDY    26  17  68 SW5       30.38F WCI  20
CEDAR CITY     CLOUDY    49  16  26 S10       30.26S
DELTA          CLOUDY    43  28  56 NE3       30.21F
MILFORD        CLOUDY    50  21  32 S13       30.22F
MOAB/CYNLANDS  CLEAR     39  21  48 NW3       30.30S
PRICE          PTCLDY    36  24  62 N8        30.32S WCI  30
ST GEORGE      CLOUDY    52  19  28 N6        30.23S
KANAB          MOCLDY    39  16  38 E5        30.32R

$$

REGIONAL REPORTS     COLORADO/ARIZONA

CITY           SKY/WX    TMP DP  RH WIND       PRES   REMARKS
CRAIG, CO      PTCLDY    30  24  78 CALM      30.28S
GRAND JUNCTION MOCLDY    38  27  64 CALM      30.30F
RIFLE          MOCLDY    36  28  73 CALM      30.33S
MONTROSE       MOCLDY    36  23  59 SE6       30.35S WCI  31
CORTEZ         CLEAR     34  21  59 NE8       30.36S WCI  27
PAGE, AZ       MOCLDY    49  19  30 SW5       30.28F
GRAND CANYON   CLOUDY    40  10  29 CALM      30.35S
KINGMAN        MOCLDY    50  17  27 SE5       30.21S
FLAGSTAFF      CLOUDY    40  16  37 CALM      30.38S

$$

REGIONAL REPORTS    NEVADA/IDAHO/WYOMING

CITY           SKY/WX    TMP DP  RH WIND       PRES   REMARKS
LAS VEGAS, NV  MOCLDY    59  22  24 S8        30.13S
ELY            CLOUDY    40  15  36 S6        30.27S
ELKO           CLOUDY    45  31  58 CALM      30.16F
POCATELLO, ID  CLEAR     52  25  35 S12       30.10S
BURLEY         MOCLDY    45  33  63 W6        30.06F
EVANSTON, WY   MOCLDY    42  21  43 SW10      30.25F
ROCK SPRINGS   PTCLDY    42  21  43 W12       30.19F

$$



USA.gov is the U.S. government's official web portal to all federal, state and local government web resources and services.